Location: ??????
(55.2000°N, 38.3000°E)
Time: 17:19:15
(UTC+00:00)

Orbus 7S? - Pass Details

Date: 15 November 2025
Orbit: 354 x 6170 km, 56.9° (Epoch: 30 September)

Event Time Altitude Azimuth Distance (km) Brightness Sun altitude
Exits shadow 03:51:03 - 255° (WSW) 2,277 6.0 -9.7°
Reaches altitude 10° 03:51:39 10° 256° (WSW) 1,998 5.7 -9.6°
Maximum altitude 03:55:35 81° 344° (NNW) 433 2.7 -9.1°
Drops below altitude 10° 03:58:14 10° 73° (ENE) 1,351 6.2 -8.7°
Sets 03:59:58 0° 74° (ENE) 2,187 7.4 -8.5°
